When you browse on this site, cookies collect data to enhance your experience and personalize the content and advertising you see.
Visit our Privacy Policy to learn more. By continuing to use the site, you agree to this use of cookies and data.
  • In Romania
  • List of Countries
  • For 7 days
  • Water Temperature
  • Satellite Maps
  • Weather Map
  • Weather Widgets
  • user-avatar
    Login

    Hourly Weather Oyem

    Today, 22 May, Wednesday

    Time Temperature Precipitation Wind Pressure Humidity
    00:00 +23°C° 1 mm 1 mps 704 mmHg 97%
    01:00 +22°C° 0 mm 1 mps 704 mmHg 97%
    02:00 +22°C° 0.1 mm 1 mps 704 mmHg 98%
    03:00 +20°C° 0.1 mm 0 mps 703 mmHg 98%
    04:00 +20°C° 0.1 mm 0 mps 703 mmHg 98%
    05:00 +20°C° 0.3 mm 0 mps 703 mmHg 98%
    06:00 +20°C° 0.3 mm 0 mps 704 mmHg 98%
    07:00 +20°C° 0 mm 0 mps 704 mmHg 98%
    08:00 +21°C° 0.2 mm 0 mps 704 mmHg 95%
    09:00 +24°C° 0.2 mm 1 mps 704 mmHg 92%
    10:00 +25°C° 0.2 mm 1 mps 705 mmHg 89%
    11:00 +27°C° 0 mm 1 mps 705 mmHg 78%
    12:00 +29°C° 0 mm 1 mps 704 mmHg 66%
    13:00 +31°C° 0 mm 1 mps 704 mmHg 55%
    14:00 +31°C° 0 mm 1 mps 704 mmHg 56%
    15:00 +31°C° 0 mm 1 mps 703 mmHg 57%
    16:00 +31°C° 0 mm 1 mps 703 mmHg 58%
    17:00 +29°C° 0.1 mm 1 mps 703 mmHg 68%
    18:00 +25°C° 0.1 mm 0 mps 703 mmHg 79%
    19:00 +23°C° 0.1 mm 0 mps 703 mmHg 89%
    20:00 +22°C° 0 mm 0 mps 703 mmHg 91%
    21:00 +22°C° 0 mm 0 mps 703 mmHg 93%
    22:00 +22°C° 0 mm 0 mps 704 mmHg 95%
    23:00 +22°C° 0.1 mm 0 mps 704 mmHg 96%

    Tomorrow, 23 May, Thursday

    Time Temperature Precipitation Wind Pressure Humidity
    00:00 +21°C° 0.1 mm 0 mps 703 mmHg 96%
    01:00 +23°C° 0.1 mm 1 mps 703 mmHg 97%
    02:00 +21°C° 0 mm 0 mps 703 mmHg 98%
    03:00 +21°C° 0 mm 0 mps 703 mmHg 98%
    04:00 +20°C° 0 mm 0 mps 702 mmHg 99%
    05:00 +20°C° 0 mm 0 mps 703 mmHg 98%
    06:00 +21°C° 0 mm 0 mps 703 mmHg 98%
    07:00 +21°C° 0 mm 0 mps 704 mmHg 97%
    08:00 +23°C° 0 mm 0 mps 704 mmHg 89%
    09:00 +25°C° 0 mm 0 mps 705 mmHg 81%
    10:00 +27°C° 0 mm 0 mps 705 mmHg 72%
    11:00 +27°C° 0.8 mm 0 mps 705 mmHg 72%
    12:00 +28°C° 0.8 mm 0 mps 704 mmHg 71%
    13:00 +29°C° 0.8 mm 0 mps 704 mmHg 70%
    14:00 +28°C° 1.3 mm 0 mps 703 mmHg 75%
    15:00 +27°C° 1.3 mm 0 mps 702 mmHg 81%
    16:00 +28°C° 1.3 mm 1 mps 702 mmHg 86%
    17:00 +27°C° 1 mm 1 mps 702 mmHg 89%
    18:00 +26°C° 1 mm 1 mps 702 mmHg 93%
    19:00 +24°C° 1 mm 1 mps 702 mmHg 97%
    20:00 +22°C° 0 mm 0 mps 703 mmHg 97%
    21:00 +22°C° 0 mm 0 mps 703 mmHg 97%
    22:00 +22°C° 0 mm 0 mps 704 mmHg 97%
    23:00 +21°C° 0.2 mm 0 mps 704 mmHg 97%

    Day after tomorrow, 24 May, Friday

    Time Temperature Precipitation Wind Pressure Humidity
    00:00 +21°C° 0.2 mm 0 mps 703 mmHg 97%
    01:00 +23°C° 0.2 mm 1 mps 703 mmHg 97%
    02:00 +21°C° 0 mm 0 mps 703 mmHg 97%
    03:00 +21°C° 0 mm 0 mps 703 mmHg 97%
    04:00 +20°C° 0 mm 0 mps 702 mmHg 98%
    05:00 +21°C° 0 mm 0 mps 703 mmHg 97%
    06:00 +21°C° 0 mm 0 mps 703 mmHg 97%
    07:00 +21°C° 0 mm 0 mps 703 mmHg 97%
    08:00 +24°C° 0.3 mm 1 mps 704 mmHg 94%
    09:00 +25°C° 0.3 mm 1 mps 705 mmHg 91%
    10:00 +26°C° 0.3 mm 1 mps 705 mmHg 87%
    11:00 +27°C° 1 mm 1 mps 705 mmHg 86%
    12:00 +27°C° 1 mm 1 mps 704 mmHg 85%
    13:00 +28°C° 1 mm 1 mps 704 mmHg 83%
    14:00 +28°C° 0.3 mm 1 mps 703 mmHg 79%
    15:00 +28°C° 0.3 mm 1 mps 703 mmHg 75%
    16:00 +29°C° 0.3 mm 1 mps 702 mmHg 71%
    17:00 +27°C° 0 mm 1 mps 702 mmHg 76%
    18:00 +24°C° 0 mm 0 mps 702 mmHg 82%
    19:00 +23°C° 0 mm 0 mps 703 mmHg 88%
    20:00 +22°C° 0 mm 0 mps 703 mmHg 89%
    21:00 +22°C° 0 mm 0 mps 703 mmHg 90%
    22:00 +21°C° 0 mm 0 mps 704 mmHg 91%
    23:00 +21°C° 0 mm 0 mps 704 mmHg 92%

    25 May, Saturday

    Time Temperature Precipitation Wind Pressure Humidity
    00:00 +21°C° 0 mm 0 mps 703 mmHg 93%
    01:00 +21°C° 0 mm 0 mps 703 mmHg 94%
    02:00 +20°C° 0.1 mm 0 mps 703 mmHg 95%
    03:00 +20°C° 0.1 mm 0 mps 703 mmHg 97%
    04:00 +20°C° 0.1 mm 0 mps 702 mmHg 98%
    05:00 +20°C° 0 mm 0 mps 703 mmHg 97%
    06:00 +21°C° 0 mm 0 mps 703 mmHg 97%
    07:00 +21°C° 0 mm 0 mps 704 mmHg 96%
    08:00 +23°C° 0 mm 0 mps 704 mmHg 87%
    09:00 +25°C° 0 mm 0 mps 705 mmHg 78%
    10:00 +27°C° 0 mm 0 mps 706 mmHg 69%
    11:00 +28°C° 0.1 mm 0 mps 705 mmHg 68%
    12:00 +28°C° 0.1 mm 0 mps 704 mmHg 66%
    13:00 +29°C° 0.1 mm 0 mps 704 mmHg 64%
    14:00 +29°C° 0.3 mm 0 mps 703 mmHg 63%
    15:00 +29°C° 0.3 mm 0 mps 703 mmHg 61%
    16:00 +29°C° 0.3 mm 0 mps 702 mmHg 60%
    17:00 +26°C° 1.8 mm 0 mps 702 mmHg 71%
    18:00 +24°C° 1.8 mm 0 mps 703 mmHg 82%
    19:00 +22°C° 1.8 mm 0 mps 703 mmHg 93%
    20:00 +22°C° 1.1 mm 0 mps 703 mmHg 94%
    21:00 +22°C° 1.1 mm 0 mps 704 mmHg 95%
    22:00 +21°C° 1.1 mm 0 mps 704 mmHg 96%
    23:00 +21°C° 0.1 mm 0 mps 704 mmHg 97%

    26 May, Sunday

    Time Temperature Precipitation Wind Pressure Humidity
    00:00 +21°C° 0.1 mm 0 mps 703 mmHg 97%
    01:00 +21°C° 0.1 mm 0 mps 703 mmHg 98%
    02:00 +20°C° 0 mm 0 mps 703 mmHg 98%
    03:00 +20°C° 0 mm 0 mps 702 mmHg 99%
    04:00 +20°C° 0 mm 0 mps 702 mmHg 99%
    05:00 +21°C° 0 mm 0 mps 703 mmHg 98%
    06:00 +21°C° 0 mm 0 mps 703 mmHg 98%
    07:00 +21°C° 0 mm 0 mps 704 mmHg 97%
    08:00 +23°C° 0.1 mm 0 mps 704 mmHg 87%
    09:00 +26°C° 0.1 mm 0 mps 705 mmHg 78%
    10:00 +28°C° 0.1 mm 0 mps 705 mmHg 68%
    11:00 +28°C° 1.4 mm 0 mps 705 mmHg 67%
    12:00 +29°C° 1.4 mm 0 mps 704 mmHg 66%
    13:00 +29°C° 1.4 mm 0 mps 703 mmHg 65%
    14:00 +28°C° 0.8 mm 0 mps 703 mmHg 70%
    15:00 +28°C° 0.8 mm 0 mps 702 mmHg 74%
    16:00 +29°C° 0.8 mm 1 mps 702 mmHg 79%
    17:00 +27°C° 2.7 mm 1 mps 702 mmHg 84%
    18:00 +26°C° 2.7 mm 1 mps 702 mmHg 90%
    19:00 +24°C° 2.7 mm 1 mps 703 mmHg 95%
    20:00 +24°C° 0 mm 1 mps 703 mmHg 96%
    21:00 +21°C° 0 mm 0 mps 703 mmHg 96%
    22:00 +21°C° 0 mm 0 mps 704 mmHg 97%
    23:00 +21°C° 0.3 mm 0 mps 703 mmHg 97%

    27 May, Monday

    Time Temperature Precipitation Wind Pressure Humidity
    00:00 +21°C° 0.3 mm 0 mps 703 mmHg 98%
    01:00 +21°C° 0.3 mm 0 mps 703 mmHg 98%
    02:00 +21°C° 0.1 mm 0 mps 703 mmHg 98%
    03:00 +21°C° 0.1 mm 0 mps 702 mmHg 98%
    04:00 +21°C° 0.1 mm 0 mps 702 mmHg 98%
    05:00 +21°C° 0 mm 0 mps 703 mmHg 97%
    06:00 +21°C° 0 mm 0 mps 703 mmHg 97%
    07:00 +21°C° 0 mm 0 mps 704 mmHg 97%
    08:00 +22°C° 0.1 mm 0 mps 704 mmHg 95%
    09:00 +22°C° 0.1 mm 0 mps 704 mmHg 92%
    10:00 +23°C° 0.1 mm 0 mps 705 mmHg 90%
    11:00 +27°C° 0 mm 1 mps 704 mmHg 80%
    12:00 +29°C° 0 mm 1 mps 704 mmHg 70%
    13:00 +30°C° 0 mm 1 mps 704 mmHg 60%
    14:00 +30°C° 0 mm 1 mps 703 mmHg 61%
    15:00 +28°C° 0 mm 0 mps 702 mmHg 62%
    16:00 +28°C° 0 mm 0 mps 702 mmHg 62%
    17:00 +26°C° 0 mm 0 mps 702 mmHg 68%
    18:00 +25°C° 0 mm 0 mps 702 mmHg 74%
    19:00 +24°C° 0 mm 0 mps 703 mmHg 80%
    20:00 +23°C° 0.7 mm 0 mps 703 mmHg 84%
    21:00 +23°C° 0.7 mm 0 mps 703 mmHg 87%
    22:00 +22°C° 0.7 mm 0 mps 704 mmHg 91%
    23:00 +22°C° 0.6 mm 0 mps 703 mmHg 93%
    Show more